MOLNIYA 1-32

Last updated on Jan. 25, 2020, 4:43 a.m. UTC

1 08601U 76006A   20024.11544532 -.00001040  00000-0 -61914-4 0  9999
2 08601  62.4801  72.9840 7379195 277.4631  11.7825  1.99951176 35201
UTC
Height (km)
Latitude
Longitude
Inclination
Orbital Period
UTC large
Height (km)
Speed (km/s)
/
Latitude / Longitude
Inclination (degrees)
Orbital Period (minutes)
Azimuth
Elevation
Range (km)
Doppler Factor
iOS Compass Heading
iOS Angle

Next 30 passes for location: Hong Kong

Rise time Rise Azimuth (degrees) Set time Set Azimuth (degrees) Duration Max altitude (degrees)

No matching passes for this satellites